This is the latest recevied weather packets stored in our database for station/object KE8KMM. If no packets are shown the sender has not sent any weather packets the latest 10 day(s).
| Time | Temp. | Humidity | Pressure | Rain* | Wind** | Luminosity | Snow |
|---|---|---|---|---|---|---|---|
| 1777879834 | 11.11° C | 67% | 1010.5 hPa | 0 mm | - | 0 W/m² | - |
| 1777879531 | 10.56° C | 72% | 1010.5 hPa | 0 mm | - | 0 W/m² | - |
| 1777879228 | 10.56° C | 75% | 1010.6 hPa | 0 mm | - | 0 W/m² | - |
| 1777878925 | 11.11° C | 65% | 1010.4 hPa | 0 mm | - | 0 W/m² | - |
| 1777878622 | 11.11° C | 65% | 1010.5 hPa | 0 mm | - | 0 W/m² | - |
| 1777878320 | 11.11° C | 64% | 1010.9 hPa | 0 mm | - | 0 W/m² | - |
| 1777878015 | 11.11° C | 64% | 1010.8 hPa | 0 mm | - | 0 W/m² | - |
| 1777877711 | 11.11° C | 64% | 1011 hPa | 0 mm | - | 0 W/m² | - |
| 1777877409 | 11.11° C | 66% | 1011.1 hPa | 0 mm | - | 0 W/m² | - |
| 1777877106 | 11.11° C | 66% | 1011 hPa | 0 mm | - | 0 W/m² | - |
| 1777876803 | 11.11° C | 65% | 1011.1 hPa | 0 mm | - | 0 W/m² | - |
| 1777876500 | 11.11° C | 66% | 1011.1 hPa | 0 mm | - | 0 W/m² | - |
| 1777876196 | 10.56° C | 71% | 1011 hPa | 0 mm | - | 0 W/m² | - |
| 1777875893 | 10.56° C | 74% | 1011.3 hPa | 0 mm | - | 0 W/m² | - |
| 1777875589 | 10.56° C | 68% | 1011.6 hPa | 0 mm | - | 0 W/m² | - |
| 1777875286 | 10° C | 71% | 1011.4 hPa | 0 mm | - | 0 W/m² | - |
| 1777874983 | 9.44° C | 74% | 1011.7 hPa | 0 mm | - | 0 W/m² | - |
| 1777874679 | 8.89° C | 79% | 1011.4 hPa | 0 mm | - | 0 W/m² | - |
| 1777874375 | 8.89° C | 80% | 1011.4 hPa | 0 mm | - | 0 W/m² | - |
| 1777874074 | 8.33° C | 81% | 1011.7 hPa | 0 mm | - | 0 W/m² | - |
| 1777873772 | 8.33° C | 82% | 1011.9 hPa | 0 mm | - | 0 W/m² | - |
| 1777873468 | 7.78° C | 82% | 1011.8 hPa | 0 mm | - | 0 W/m² | - |
| 1777873165 | 7.78° C | 82% | 1011.7 hPa | 0 mm | - | 0 W/m² | - |
| 1777872861 | 7.78° C | 82% | 1011.9 hPa | 0 mm | - | 0 W/m² | - |
| 1777872559 | 7.78° C | 83% | 1011.9 hPa | 0 mm | - | 0 W/m² | - |
* Rain latest hour (hover to see other rain measurements)
** Current wind speed in m/s (hover to see current wind gust speed)